| time (UTC) | temp C | wind direction | speed KPH | gust KPH | rain 1hr cm | rain 24hr cm | rain mn cm | humidity % | barometer mb |
| 20260505184709 | 27 | 172 | 4.8 | 9.7 | 0.00 | 0.00 | 0.00 | 40 | 1010.9 |
| 20260505184206 | 27 | 287 | 4.8 | 8.0 | 0.00 | 0.00 | 0.00 | 39 | 1010.8 |
| 20260505183703 | 27 | 256 | 8.0 | 12.9 | 0.00 | 0.00 | 0.00 | 39 | 1010.7 |
| 20260505183201 | 27 | 242 | 6.4 | 11.3 | 0.00 | 0.00 | 0.00 | 40 | 1010.8 |
| 20260505182656 | 27 | 252 | 8.0 | 12.9 | 0.00 | 0.00 | 0.00 | 39 | 1010.6 |
| 20260505182154 | 27 | 275 | 14.5 | 16.1 | 0.00 | 0.00 | 0.00 | 39 | 1010.9 |
| 20260505181650 | 27 | 212 | 3.2 | 4.8 | 0.00 | 0.00 | 0.00 | 41 | 1010.8 |
| 20260505181148 | 27 | 253 | 4.8 | 11.3 | 0.00 | 0.00 | 0.00 | 41 | 1010.7 |
| 20260505180643 | 27 | 247 | 6.4 | 12.9 | 0.00 | 0.00 | 0.00 | 40 | 1010.9 |
| 20260505180141 | 27 | 328 | 1.6 | 3.2 | 0.00 | 0.00 | 0.00 | 40 | 1011.0 |
| 20260505175637 | 27 | 182 | 4.8 | 4.8 | 0.00 | 0.00 | 0.00 | 43 | 1011.0 |
| 20260505175133 | 27 | 253 | 11.3 | 14.5 | 0.00 | 0.00 | 0.00 | 41 | 1011.0 |
| 20260505174630 | 27 | 271 | 12.9 | 16.1 | 0.00 | 0.00 | 0.00 | 39 | 1010.9 |
| 20260505174126 | 27 | 195 | 4.8 | 8.0 | 0.00 | 0.00 | 0.00 | 40 | 1011.0 |
| 20260505173623 | 27 | 276 | 3.2 | 3.2 | 0.00 | 0.00 | 0.00 | 41 | 1010.9 |
| 20260505173120 | 27 | 220 | 6.4 | 9.7 | 0.00 | 0.00 | 0.00 | 43 | 1011.1 |
| 20260505172618 | 27 | 222 | 6.4 | 9.7 | 0.00 | 0.00 | 0.00 | 44 | 1011.0 |
| 20260505172114 | 27 | 227 | 11.3 | 14.5 | 0.00 | 0.00 | 0.00 | 44 | 1011.2 |
| 20260505171609 | 27 | 263 | 8.0 | 9.7 | 0.00 | 0.00 | 0.00 | 44 | 1011.2 |
| 20260505171106 | 27 | 310 | 4.8 | 9.7 | 0.00 | 0.00 | 0.00 | 45 | 1011.4 |
| 20260505170603 | 26 | 232 | 1.6 | 3.2 | 0.00 | 0.00 | 0.00 | 45 | 1011.3 |
| 20260505170059 | 26 | 307 | 8.0 | 8.0 | 0.00 | 0.00 | 0.00 | 44 | 1011.4 |
| 20260505165554 | 26 | 272 | 6.4 | 9.7 | 0.00 | 0.00 | 0.00 | 44 | 1011.4 |
| 20260505165050 | 26 | 277 | 8.0 | 11.3 | 0.00 | 0.00 | 0.00 | 45 | 1011.5 |
| 20260505164546 | 26 | 158 | 8.0 | 11.3 | 0.00 | 0.00 | 0.00 | 46 | 1011.5 |
| 20260505164044 | 27 | 236 | 4.8 | 8.0 | 0.00 | 0.00 | 0.00 | 49 | 1011.6 |
| 20260505163543 | 26 | 265 | 6.4 | 11.3 | 0.00 | 0.00 | 0.00 | 47 | 1011.7 |
| 20260505163039 | 26 | 269 | 8.0 | 11.3 | 0.00 | 0.00 | 0.00 | 46 | 1011.6 |
| 20260505162532 | 26 | 310 | 8.0 | 16.1 | 0.00 | 0.00 | 0.00 | 45 | 1011.6 |
| 20260505162029 | 26 | 230 | 6.4 | 9.7 | 0.00 | 0.00 | 0.00 | 48 | 1011.8 |
| 20260505161526 | 26 | 213 | 8.0 | 11.3 | 0.00 | 0.00 | 0.00 | 46 | 1011.5 |
| 20260505161023 | 26 | 197 | 8.0 | 9.7 | 0.00 | 0.00 | 0.00 | 47 | 1011.7 |
| 20260505160521 | 26 | 137 | 8.0 | 9.7 | 0.00 | 0.00 | 0.00 | 47 | 1011.6 |
| 20260505152957 | 26 | 244 | 8.0 | 9.7 | 0.00 | 0.00 | 0.00 | 48 | 1012.2 |
| 20260505152455 | 25 | 266 | 3.2 | 9.7 | 0.00 | 0.00 | 0.00 | 47 | 1012.0 |
| 20260505151949 | 26 | 248 | 9.7 | 11.3 | 0.00 | 0.00 | 0.00 | 49 | 1012.1 |
| 20260505151445 | 25 | 262 | 8.0 | 9.7 | 0.00 | 0.00 | 0.00 | 49 | 1012.1 |
| 20260505150943 | 25 | 155 | 1.6 | 1.6 | 0.00 | 0.00 | 0.00 | 51 | 1012.0 |
| 20260505150439 | 24 | 261 | 4.8 | 4.8 | 0.00 | 0.00 | 0.00 | 50 | 1012.3 |
| 20260505140410 | 22 | 213 | 6.4 | 8.0 | 0.00 | 0.00 | 0.00 | 57 | 1012.8 |
| 20260505124823 | 19 | 157 | 3.2 | 3.2 | 0.00 | 0.00 | 0.00 | 65 | 1013.0 |
| 20260505124320 | 18 | 101 | 1.6 | 1.6 | 0.00 | 0.00 | 0.00 | 66 | 1013.0 |
| 20260505123815 | 18 | 98 | 4.8 | 8.0 | 0.00 | 0.00 | 0.00 | 66 | 1013.0 |
| 20260505123313 | 18 | 275 | 4.8 | 8.0 | 0.00 | 0.00 | 0.00 | 67 | 1013.1 |
| 20260505122809 | 18 | 173 | 1.6 | 3.2 | 0.00 | 0.00 | 0.00 | 67 | 1013.1 |
| 20260505122306 | 18 | 191 | 4.8 | 8.0 | 0.00 | 0.00 | 0.00 | 67 | 1013.0 |
| 20260505121802 | 18 | 101 | 0.0 | 0.0 | 0.00 | 0.00 | 0.00 | 69 | 1013.0 |
| 20260505121300 | 17 | 144 | 0.0 | 1.6 | 0.00 | 0.00 | 0.00 | 70 | 1013.0 |
| 20260505120756 | 17 | 103 | 0.0 | 0.0 | 0.00 | 0.00 | 0.00 | 71 | 1012.8 |
| 20260505120252 | 17 | 71 | 1.6 | 1.6 | 0.00 | 0.00 | 0.00 | 71 | 1012.8 |
| 20260505115751 | 17 | 133 | 3.2 | 4.8 | 0.00 | 0.00 | 0.00 | 71 | 1012.7 |
| 20260505115248 | 17 | 95 | 0.0 | 0.0 | 0.00 | 0.00 | 0.00 | 71 | 1012.9 |
| 20260505114746 | 17 | 138 | 1.6 | 3.2 | 0.00 | 0.00 | 0.00 | 71 | 1012.9 |
| 20260505114242 | 16 | 153 | 1.6 | 1.6 | 0.00 | 0.00 | 0.00 | 72 | 1012.7 |
| 20260505113739 | 16 | 175 | 1.6 | 1.6 | 0.00 | 0.00 | 0.00 | 72 | 1012.6 |
| 20260505113235 | 16 | 188 | 3.2 | 8.0 | 0.00 | 0.00 | 0.00 | 73 | 1012.7 |
| 20260505112731 | 16 | 119 | 0.0 | 0.0 | 0.00 | 0.00 | 0.00 | 74 | 1012.5 |
| 20260505112229 | 16 | 182 | 3.2 | 8.0 | 0.00 | 0.00 | 0.00 | 73 | 1012.6 |
| 20260505111729 | 16 | 221 | 3.2 | 3.2 | 0.00 | 0.00 | 0.00 | 73 | 1012.6 |
| 20260505111225 | 16 | 282 | 0.0 | 1.6 | 0.00 | 0.00 | 0.00 | 74 | 1012.5 |
| 20260505110721 | 15 | 148 | 0.0 | 1.6 | 0.00 | 0.00 | 0.00 | 75 | 1012.5 |
| 20260505110219 | 15 | 225 | 4.8 | 4.8 | 0.00 | 0.00 | 0.00 | 75 | 1012.3 |
| 20260505102154 | 14 | 280 | 3.2 | 3.2 | 0.00 | 0.00 | 0.00 | 78 | 1012.1 |
| 20260505101653 | 14 | 196 | 1.6 | 1.6 | 0.00 | 0.00 | 0.00 | 79 | 1012.3 |
| 20260505101149 | 13 | 139 | 1.6 | 3.2 | 0.00 | 0.00 | 0.00 | 81 | 1012.0 |
| 20260505100645 | 13 | 158 | 0.0 | 0.0 | 0.00 | 0.00 | 0.00 | 82 | 1012.1 |
| 20260505100142 | 13 | 91 | 0.0 | 1.6 | 0.00 | 0.00 | 0.00 | 80 | 1012.0 |
| 20260505095638 | 13 | 134 | 3.2 | 3.2 | 0.00 | 0.00 | 0.00 | 81 | 1012.1 |
| 20260505095136 | 13 | 175 | 0.0 | 0.0 | 0.00 | 0.00 | 0.00 | 80 | 1012.0 |
| 20260505094631 | 14 | 271 | 3.2 | 3.2 | 0.00 | 0.00 | 0.00 | 78 | 1012.0 |
| 20260505094128 | 14 | 178 | 0.0 | 0.0 | 0.00 | 0.00 | 0.00 | 78 | 1011.9 |
| 20260505093624 | 14 | 275 | 0.0 | 1.6 | 0.00 | 0.00 | 0.00 | 78 | 1011.9 |
| 20260505093121 | 13 | 270 | 1.6 | 3.2 | 0.00 | 0.00 | 0.00 | 81 | 1011.9 |
| 20260505092618 | 13 | 161 | 0.0 | 0.0 | 0.00 | 0.00 | 0.00 | 80 | 1011.9 |
| 20260505092118 | 14 | 169 | 0.0 | 0.0 | 0.00 | 0.00 | 0.00 | 79 | 1012.0 |
| 20260505091613 | 14 | 202 | 1.6 | 1.6 | 0.00 | 0.00 | 0.00 | 78 | 1012.0 |
| 20260505091112 | 15 | 172 | 0.0 | 0.0 | 0.00 | 0.00 | 0.00 | 77 | 1011.8 |
| 20260505090609 | 15 | 214 | 0.0 | 1.6 | 0.00 | 0.00 | 0.00 | 76 | 1011.7 |
| 20260505090108 | 15 | 162 | 0.0 | 0.0 | 0.00 | 0.00 | 0.00 | 76 | 1012.1 |
| 20260505085604 | 15 | 144 | 0.0 | 0.0 | 0.00 | 0.00 | 0.00 | 75 | 1012.0 |
| 20260505085103 | 15 | 204 | 0.0 | 0.0 | 0.00 | 0.00 | 0.00 | 75 | 1012.0 |
| 20260505084600 | 15 | 154 | 0.0 | 0.0 | 0.00 | 0.00 | 0.00 | 75 | 1011.7 |
| 20260505084058 | 15 | 236 | 0.0 | 1.6 | 0.00 | 0.00 | 0.00 | 74 | 1011.8 |
| 20260505083555 | 15 | 173 | 0.0 | 0.0 | 0.00 | 0.00 | 0.00 | 74 | 1011.8 |
| 20260505083052 | 15 | 172 | 0.0 | 0.0 | 0.00 | 0.00 | 0.00 | 73 | 1011.9 |
| 20260505082548 | 15 | 171 | 0.0 | 0.0 | 0.00 | 0.00 | 0.00 | 73 | 1011.7 |
| 20260505082045 | 16 | 134 | 0.0 | 0.0 | 0.00 | 0.00 | 0.00 | 73 | 1011.8 |
| 20260505081541 | 16 | 180 | 1.6 | 1.6 | 0.00 | 0.00 | 0.00 | 71 | 1011.9 |
| 20260505081038 | 16 | 182 | 1.6 | 1.6 | 0.00 | 0.00 | 0.00 | 72 | 1011.6 |
| 20260505080534 | 16 | 242 | 3.2 | 4.8 | 0.00 | 0.00 | 0.00 | 71 | 1011.7 |
| 20260505080031 | 16 | 242 | 6.4 | 9.7 | 0.00 | 0.00 | 0.00 | 71 | 1011.7 |
| 20260505075527 | 16 | 164 | 0.0 | 1.6 | 0.00 | 0.00 | 0.00 | 70 | 1011.7 |
| 20260505075024 | 16 | 174 | 0.0 | 1.6 | 0.00 | 0.00 | 0.00 | 70 | 1011.7 |
| 20260505074521 | 16 | 241 | 1.6 | 3.2 | 0.00 | 0.00 | 0.00 | 70 | 1011.6 |
| 20260505074018 | 16 | 263 | 1.6 | 3.2 | 0.00 | 0.00 | 0.00 | 70 | 1011.7 |
| 20260505073516 | 16 | 238 | 1.6 | 1.6 | 0.00 | 0.00 | 0.00 | 70 | 1011.6 |
| 20260505073014 | 16 | 289 | 1.6 | 4.8 | 0.00 | 0.00 | 0.00 | 69 | 1011.7 |
| 20260505072509 | 16 | 233 | 3.2 | 3.2 | 0.00 | 0.00 | 0.00 | 69 | 1011.7 |
| 20260505072006 | 16 | 257 | 1.6 | 1.6 | 0.00 | 0.00 | 0.00 | 69 | 1011.9 |
| 20260505071501 | 16 | 199 | 1.6 | 1.6 | 0.00 | 0.00 | 0.00 | 69 | 1011.6 |
| 20260505071000 | 16 | 225 | 8.0 | 9.7 | 0.00 | 0.00 | 0.00 | 68 | 1011.8 |
| 20260505070456 | 16 | 196 | 3.2 | 4.8 | 0.00 | 0.00 | 0.00 | 68 | 1011.8 |
| 20260505065952 | 16 | 279 | 3.2 | 3.2 | 0.00 | 0.00 | 0.00 | 68 | 1011.9 |
| 20260505065448 | 16 | 225 | 6.4 | 8.0 | 0.00 | 0.00 | 0.00 | 68 | 1011.8 |
| 20260505064945 | 16 | 251 | 0.0 | 1.6 | 0.00 | 0.00 | 0.00 | 68 | 1011.8 |
| 20260505064442 | 16 | 223 | 3.2 | 3.2 | 0.00 | 0.00 | 0.00 | 68 | 1011.7 |
| 20260505063941 | 16 | 227 | 4.8 | 4.8 | 0.00 | 0.00 | 0.00 | 68 | 1011.7 |
| 20260505063437 | 16 | 291 | 11.3 | 16.1 | 0.00 | 0.00 | 0.00 | 68 | 1011.6 |
| 20260505062933 | 16 | 216 | 4.8 | 4.8 | 0.00 | 0.00 | 0.00 | 68 | 1011.7 |
| 20260505062431 | 16 | 234 | 1.6 | 1.6 | 0.00 | 0.00 | 0.00 | 69 | 1011.6 |
| 20260505061927 | 16 | 215 | 1.6 | 3.2 | 0.00 | 0.00 | 0.00 | 68 | 1011.9 |
| 20260505061426 | 16 | 226 | 1.6 | 3.2 | 0.00 | 0.00 | 0.00 | 68 | 1011.9 |
| 20260505060923 | 16 | 212 | 0.0 | 0.0 | 0.00 | 0.00 | 0.00 | 68 | 1012.0 |
| 20260505060419 | 16 | 220 | 3.2 | 4.8 | 0.00 | 0.00 | 0.00 | 68 | 1011.8 |
| 20260505055916 | 16 | 264 | 4.8 | 4.8 | 0.00 | 0.00 | 0.00 | 67 | 1011.7 |
| 20260505055412 | 16 | 234 | 0.0 | 1.6 | 0.00 | 0.00 | 0.00 | 67 | 1011.9 |
| 20260505054909 | 16 | 265 | 8.0 | 9.7 | 0.00 | 0.00 | 0.00 | 66 | 1011.6 |
| 20260505054406 | 16 | 223 | 4.8 | 4.8 | 0.00 | 0.00 | 0.00 | 65 | 1011.7 |
| 20260505053904 | 16 | 240 | 3.2 | 3.2 | 0.00 | 0.00 | 0.00 | 65 | 1011.7 |
| 20260505053401 | 16 | 187 | 4.8 | 4.8 | 0.00 | 0.00 | 0.00 | 65 | 1011.6 |
| 20260505052858 | 16 | 257 | 11.3 | 14.5 | 0.00 | 0.00 | 0.00 | 65 | 1011.7 |
| 20260505052355 | 16 | 119 | 3.2 | 3.2 | 0.00 | 0.00 | 0.00 | 65 | 1011.7 |
| 20260505051852 | 16 | 259 | 1.6 | 3.2 | 0.00 | 0.00 | 0.00 | 64 | 1011.8 |
| 20260505051349 | 16 | 217 | 1.6 | 3.2 | 0.00 | 0.00 | 0.00 | 63 | 1011.5 |
| 20260505050847 | 16 | 253 | 4.8 | 8.0 | 0.00 | 0.00 | 0.00 | 64 | 1011.5 |
| 20260505050345 | 16 | 315 | 1.6 | 3.2 | 0.00 | 0.00 | 0.00 | 63 | 1012.0 |
| 20260505041312 | 16 | 295 | 0.0 | 1.6 | 0.00 | 0.00 | 0.00 | 60 | 1011.8 |
| 20260505040809 | 16 | 242 | 1.6 | 3.2 | 0.00 | 0.00 | 0.00 | 61 | 1011.8 |
| 20260505040307 | 15 | 227 | 1.6 | 3.2 | 0.00 | 0.00 | 0.00 | 63 | 1011.6 |
| 20260505035803 | 15 | 189 | 1.6 | 1.6 | 0.00 | 0.00 | 0.00 | 62 | 1011.5 |
| 20260505035259 | 14 | 356 | 0.0 | 1.6 | 0.00 | 0.00 | 0.00 | 64 | 1011.5 |
| 20260505034757 | 14 | 148 | 0.0 | 0.0 | 0.00 | 0.00 | 0.00 | 66 | 1011.9 |
| 20260505034254 | 14 | 148 | 0.0 | 0.0 | 0.00 | 0.00 | 0.00 | 65 | 1011.5 |
| 20260505033750 | 14 | 136 | 0.0 | 0.0 | 0.00 | 0.00 | 0.00 | 64 | 1011.8 |
| 20260505033248 | 14 | 154 | 0.0 | 1.6 | 0.00 | 0.00 | 0.00 | 67 | 1011.5 |
| 20260505032746 | 14 | 152 | 0.0 | 0.0 | 0.00 | 0.00 | 0.00 | 65 | 1011.6 |
| 20260505032241 | 15 | 156 | 0.0 | 0.0 | 0.00 | 0.00 | 0.00 | 65 | 1011.6 |
| 20260505031739 | 15 | 154 | 0.0 | 0.0 | 0.00 | 0.00 | 0.00 | 63 | 1011.6 |
| 20260505031235 | 15 | 163 | 0.0 | 0.0 | 0.00 | 0.00 | 0.00 | 63 | 1011.3 |
| 20260505030732 | 15 | 159 | 0.0 | 0.0 | 0.00 | 0.00 | 0.00 | 61 | 1011.7 |
| 20260505030228 | 15 | 148 | 0.0 | 0.0 | 0.00 | 0.00 | 0.00 | 61 | 1011.5 |
| 20260505025724 | 15 | 173 | 0.0 | 0.0 | 0.00 | 0.00 | 0.00 | 60 | 1011.8 |
| 20260505025223 | 15 | 118 | 0.0 | 0.0 | 0.00 | 0.00 | 0.00 | 60 | 1011.5 |
| 20260505024720 | 15 | 146 | 0.0 | 0.0 | 0.00 | 0.00 | 0.00 | 61 | 1011.9 |
| 20260505024217 | 15 | 148 | 0.0 | 0.0 | 0.00 | 0.00 | 0.00 | 61 | 1011.7 |
| 20260505023715 | 16 | 244 | 0.0 | 0.0 | 0.00 | 0.00 | 0.00 | 61 | 1011.9 |
| 20260505023212 | 16 | 273 | 0.0 | 0.0 | 0.00 | 0.00 | 0.00 | 58 | 1012.1 |
| 20260505022709 | 16 | 125 | 1.6 | 3.2 | 0.00 | 0.00 | 0.00 | 59 | 1011.9 |
| 20260505022206 | 16 | 319 | 0.0 | 0.0 | 0.00 | 0.00 | 0.00 | 58 | 1011.7 |
| 20260505021703 | 16 | 156 | 0.0 | 1.6 | 0.00 | 0.00 | 0.00 | 58 | 1011.8 |
| 20260505021159 | 17 | 179 | 0.0 | 1.6 | 0.00 | 0.00 | 0.00 | 57 | 1011.9 |
| 20260505020655 | 16 | 99 | 1.6 | 3.2 | 0.00 | 0.00 | 0.00 | 58 | 1011.8 |
| 20260505020151 | 17 | 152 | 0.0 | 1.6 | 0.00 | 0.00 | 0.00 | 56 | 1012.2 |
| 20260505015648 | 17 | 124 | 0.0 | 0.0 | 0.00 | 0.00 | 0.00 | 55 | 1012.0 |
| 20260505015145 | 17 | 135 | 0.0 | 1.6 | 0.00 | 0.00 | 0.00 | 54 | 1011.8 |
| 20260505014642 | 17 | 124 | 0.0 | 0.0 | 0.00 | 0.00 | 0.00 | 53 | 1011.8 |
| 20260505014139 | 17 | 147 | 0.0 | 1.6 | 0.00 | 0.00 | 0.00 | 54 | 1011.9 |
| 20260505013636 | 17 | 152 | 0.0 | 0.0 | 0.00 | 0.00 | 0.00 | 56 | 1011.9 |
| 20260505013133 | 17 | 152 | 0.0 | 0.0 | 0.00 | 0.00 | 0.00 | 57 | 1011.9 |
| 20260505012632 | 17 | 161 | 0.0 | 0.0 | 0.00 | 0.00 | 0.00 | 58 | 1011.9 |
| 20260505012128 | 16 | 154 | 0.0 | 0.0 | 0.00 | 0.00 | 0.00 | 58 | 1012.0 |
| 20260505011624 | 16 | 156 | 0.0 | 0.0 | 0.00 | 0.00 | 0.00 | 60 | 1011.9 |
| 20260505011121 | 16 | 158 | 0.0 | 0.0 | 0.00 | 0.00 | 0.00 | 60 | 1011.7 |
| 20260505010616 | 15 | 157 | 0.0 | 0.0 | 0.00 | 0.00 | 0.00 | 61 | 1011.8 |
| 20260505010114 | 16 | 157 | 0.0 | 0.0 | 0.00 | 0.00 | 0.00 | 61 | 1011.6 |
| 20260505005610 | 16 | 158 | 0.0 | 0.0 | 0.00 | 0.00 | 0.00 | 59 | 1011.5 |
| 20260505005107 | 16 | 157 | 0.0 | 0.0 | 0.00 | 0.00 | 0.00 | 58 | 1011.3 |
| 20260505004604 | 16 | 159 | 0.0 | 0.0 | 0.00 | 0.00 | 0.00 | 58 | 1011.4 |
| 20260505004101 | 17 | 162 | 0.0 | 0.0 | 0.00 | 0.00 | 0.00 | 55 | 1011.5 |
| 20260505003558 | 17 | 168 | 0.0 | 0.0 | 0.00 | 0.00 | 0.00 | 54 | 1011.4 |
| 20260505003055 | 18 | 165 | 0.0 | 0.0 | 0.00 | 0.00 | 0.00 | 52 | 1011.3 |
| 20260505002550 | 18 | 256 | 1.6 | 1.6 | 0.00 | 0.00 | 0.00 | 52 | 1011.2 |
| 20260505002049 | 18 | 171 | 0.0 | 0.0 | 0.00 | 0.00 | 0.00 | 53 | 1011.2 |
| 20260505001546 | 18 | 216 | 0.0 | 0.0 | 0.00 | 0.00 | 0.00 | 50 | 1011.1 |
| 20260505001043 | 18 | 224 | 3.2 | 3.2 | 0.00 | 0.00 | 0.00 | 50 | 1011.4 |
| 20260505000540 | 19 | 195 | 0.0 | 0.0 | 0.00 | 0.00 | 0.00 | 48 | 1011.2 |
| 20260505000038 | 20 | 178 | 0.0 | 0.0 | 0.00 | 0.00 | 0.00 | 48 | 1011.1 |
| 20260504235534 | 20 | 203 | 1.6 | 3.2 | 0.00 | 0.00 | 0.00 | 47 | 1011.3 |
| 20260504235031 | 20 | 235 | 4.8 | 4.8 | 0.00 | 0.00 | 0.00 | 46 | 1011.2 |
| 20260504234528 | 20 | 232 | 4.8 | 4.8 | 0.00 | 0.00 | 0.00 | 46 | 1011.1 |
| 20260504234025 | 20 | 253 | 3.2 | 4.8 | 0.00 | 0.00 | 0.00 | 46 | 1011.1 |
| 20260504233520 | 20 | 231 | 4.8 | 4.8 | 0.00 | 0.00 | 0.00 | 45 | 1011.1 |
| 20260504233018 | 20 | 244 | 4.8 | 4.8 | 0.00 | 0.00 | 0.00 | 45 | 1011.1 |
| 20260504232514 | 21 | 101 | 4.8 | 8.0 | 0.00 | 0.00 | 0.00 | 45 | 1011.2 |
| 20260504232012 | 21 | 239 | 3.2 | 4.8 | 0.00 | 0.00 | 0.00 | 44 | 1011.0 |
| 20260504231509 | 21 | 210 | 4.8 | 4.8 | 0.00 | 0.00 | 0.00 | 43 | 1011.0 |
| 20260504231005 | 21 | 213 | 1.6 | 1.6 | 0.00 | 0.00 | 0.00 | 43 | 1011.0 |
| 20260504230501 | 21 | 252 | 3.2 | 8.0 | 0.00 | 0.00 | 0.00 | 44 | 1010.9 |
| 20260504230000 | 21 | 327 | 1.6 | 1.6 | 0.00 | 0.00 | 0.00 | 43 | 1011.0 |
| 20260504225456 | 21 | 198 | 4.8 | 9.7 | 0.00 | 0.00 | 0.00 | 44 | 1011.0 |
| 20260504224954 | 21 | 222 | 3.2 | 4.8 | 0.00 | 0.00 | 0.00 | 43 | 1011.1 |
| 20260504224450 | 21 | 275 | 3.2 | 4.8 | 0.00 | 0.00 | 0.00 | 43 | 1010.9 |
| 20260504223947 | 21 | 247 | 1.6 | 3.2 | 0.00 | 0.00 | 0.00 | 42 | 1011.0 |
| 20260504223443 | 21 | 288 | 4.8 | 8.0 | 0.00 | 0.00 | 0.00 | 42 | 1010.9 |
| 20260504222939 | 21 | 224 | 3.2 | 3.2 | 0.00 | 0.00 | 0.00 | 43 | 1010.9 |
| 20260504222437 | 22 | 279 | 3.2 | 3.2 | 0.00 | 0.00 | 0.00 | 42 | 1011.0 |
| 20260504221934 | 22 | 347 | 3.2 | 4.8 | 0.00 | 0.00 | 0.00 | 43 | 1011.1 |
| 20260504221431 | 21 | 235 | 4.8 | 8.0 | 0.00 | 0.00 | 0.00 | 43 | 1010.9 |
| 20260504220928 | 22 | 248 | 4.8 | 9.7 | 0.00 | 0.00 | 0.00 | 42 | 1011.2 |
| 20260504220425 | 22 | 129 | 4.8 | 4.8 | 0.00 | 0.00 | 0.00 | 43 | 1011.2 |
| 20260504215922 | 22 | 266 | 0.0 | 1.6 | 0.00 | 0.00 | 0.00 | 42 | 1011.1 |
| 20260504215419 | 22 | 41 | 8.0 | 14.5 | 0.00 | 0.00 | 0.00 | 43 | 1010.9 |
| 20260504214915 | 22 | 281 | 1.6 | 3.2 | 0.00 | 0.00 | 0.00 | 43 | 1011.0 |
| 20260504214412 | 22 | 142 | 6.4 | 9.7 | 0.00 | 0.00 | 0.00 | 42 | 1011.0 |
| 20260504213909 | 22 | 128 | 1.6 | 4.8 | 0.00 | 0.00 | 0.00 | 43 | 1010.8 |
| 20260504213404 | 22 | 230 | 3.2 | 4.8 | 0.00 | 0.00 | 0.00 | 44 | 1011.1 |
| 20260504212902 | 22 | 286 | 1.6 | 3.2 | 0.00 | 0.00 | 0.00 | 45 | 1011.0 |
| 20260504212357 | 22 | 273 | 1.6 | 1.6 | 0.00 | 0.00 | 0.00 | 44 | 1011.2 |
| 20260504211856 | 22 | 306 | 1.6 | 1.6 | 0.00 | 0.00 | 0.00 | 43 | 1011.1 |
| 20260504211351 | 21 | 213 | 3.2 | 3.2 | 0.00 | 0.00 | 0.00 | 45 | 1011.1 |
| 20260504210849 | 21 | 262 | 3.2 | 4.8 | 0.00 | 0.00 | 0.00 | 45 | 1011.3 |
| 20260504210346 | 21 | 344 | 1.6 | 3.2 | 0.00 | 0.00 | 0.00 | 45 | 1011.1 |
| 20260504205843 | 21 | 276 | 6.4 | 11.3 | 0.00 | 0.00 | 0.00 | 43 | 1010.9 |
| 20260504205341 | 22 | 201 | 4.8 | 8.0 | 0.00 | 0.00 | 0.00 | 43 | 1011.0 |
| 20260504204839 | 22 | 251 | 4.8 | 9.7 | 0.00 | 0.00 | 0.00 | 42 | 1011.0 |
| 20260504204337 | 22 | 231 | 3.2 | 8.0 | 0.00 | 0.00 | 0.00 | 42 | 1011.1 |
| 20260504203836 | 22 | 231 | 6.4 | 8.0 | 0.00 | 0.00 | 0.00 | 41 | 1011.1 |
| 20260504203332 | 22 | 330 | 4.8 | 8.0 | 0.00 | 0.00 | 0.00 | 44 | 1011.1 |
| 20260504202828 | 23 | 268 | 9.7 | 12.9 | 0.00 | 0.00 | 0.00 | 41 | 1010.9 |
| 20260504202326 | 23 | 239 | 3.2 | 4.8 | 0.00 | 0.00 | 0.00 | 41 | 1011.2 |
| 20260504201822 | 22 | 261 | 4.8 | 8.0 | 0.00 | 0.00 | 0.00 | 41 | 1011.3 |
| 20260504201320 | 22 | 286 | 4.8 | 4.8 | 0.00 | 0.00 | 0.00 | 42 | 1011.2 |
| 20260504200817 | 22 | 195 | 8.0 | 11.3 | 0.00 | 0.00 | 0.00 | 42 | 1011.1 |
| 20260504200313 | 22 | 75 | 3.2 | 4.8 | 0.00 | 0.00 | 0.00 | 42 | 1011.2 |
| 20260504195809 | 22 | 240 | 4.8 | 8.0 | 0.00 | 0.00 | 0.00 | 42 | 1011.4 |
| 20260504195305 | 22 | 215 | 11.3 | 12.9 | 0.00 | 0.00 | 0.00 | 42 | 1011.3 |
| 20260504194803 | 22 | 244 | 8.0 | 12.9 | 0.00 | 0.00 | 0.00 | 42 | 1011.4 |
| 20260504194259 | 22 | 276 | 8.0 | 11.3 | 0.00 | 0.00 | 0.00 | 41 | 1011.5 |
| 20260504193755 | 22 | 259 | 12.9 | 16.1 | 0.00 | 0.00 | 0.00 | 40 | 1011.4 |
| 20260504193252 | 22 | 198 | 9.7 | 11.3 | 0.00 | 0.00 | 0.00 | 42 | 1011.8 |
| 20260504192751 | 22 | 249 | 6.4 | 8.0 | 0.00 | 0.00 | 0.00 | 42 | 1011.6 |
| 20260504192248 | 22 | 233 | 8.0 | 12.9 | 0.00 | 0.00 | 0.00 | 41 | 1011.6 |
| 20260504191747 | 22 | 61 | 8.0 | 11.3 | 0.00 | 0.00 | 0.00 | 41 | 1011.7 |
| 20260504191243 | 22 | 154 | 6.4 | 9.7 | 0.00 | 0.00 | 0.00 | 42 | 1011.8 |
| 20260504190739 | 21 | 137 | 4.8 | 11.3 | 0.00 | 0.00 | 0.00 | 44 | 1011.9 |
| 20260504190236 | 22 | 199 | 4.8 | 4.8 | 0.00 | 0.00 | 0.00 | 42 | 1012.0 |
| 20260504185732 | 21 | 144 | 1.6 | 1.6 | 0.00 | 0.00 | 0.00 | 43 | 1012.0 |
| 20260504185229 | 22 | 306 | 16.1 | 22.5 | 0.00 | 0.00 | 0.00 | 42 | 1012.1 |